Location: Red Rock Farm
(35.2100°N, 97.2200°W)
Time: 11:39:25
(UTC-06:00)

Daily predictions for brighter satellites

Satellite Brightness Start Highest point End
(mag) Time Altitude Azimuth Time Altitude Azimuth Time Altitude Azimuth
Cosmos 1378 Rocket 4.0 17:34:26 10° SSW 17:38:41 65° W 17:42:58 10° N
USA 32 4.4 17:36:34 10° SSE 17:41:29 44° E 17:46:26 10° NNE
IDEFIX/ARIANE 42P 2.8 17:36:41 10° SE 17:41:39 48° ENE 17:46:38 10° N
Cosmos 2181 Rocket 4.1 17:38:42 10° S 17:45:01 84° E 17:51:26 10° N
Meteor 1-5 Rocket 4.3 17:40:18 10° N 17:45:38 55° E 17:51:05 10° SSE
Cosmos 1484 Rocket 4.2 17:43:25 10° ESE 17:45:50 17° ENE 17:48:15 10° NNE
OTV 4 0.4 17:43:08 10° WNW 17:46:07 67° N 17:49:06 10° E
CZ-3B DEB 1.5 17:43:21 10° SW 17:46:14 77° SE 17:53:17 10° NE
Cosmos 372 Rocket 4.3 17:41:55 10° SSW 17:47:08 74° WNW 17:52:25 10° NNE
Cosmos 2218 Rocket 4.4 17:42:13 10° N 17:48:09 42° ENE 17:53:58 10° SSE
USA 234 4.3 17:47:43 10° NNE 17:53:37 38° NW 17:59:31 10° W
Cosmos 1455 Rocket 3.9 17:50:04 10° NNE 17:53:53 29° ENE 17:57:44 10° SE
NOSS 3-3 (A) 4.3 17:57:35 10° S 18:03:23 47° ESE 18:09:31 10° NE
NOSS 3-3 (C) 4.3 17:57:42 10° S 18:03:29 46° ESE 18:09:37 10° NE
BREEZE-M DEB (TANK) 3.3 17:57:19 10° NW 18:03:31 82° NE 18:07:07 10° SE
SL-8 R/B 3.8 18:00:14 10° SW 18:04:57 67° SE 18:09:02 14° ENE
Thor Agena Rocket 3.9 18:01:50 10° N 18:07:00 70° WNW 18:12:13 10° SSW
Okean 1 3.9 18:06:00 10° SSE 18:09:44 37° E 18:13:29 10° NNE
Hubble Space Telescope 3.1 18:09:28 10° WSW 18:12:31 20° SSW 18:15:33 10° SSE
Cosmos 1500 4.4 18:10:11 10° NNE 18:13:07 21° ENE 18:16:04 10° SE
Cosmos 1536 4.3 18:09:23 10° NNW 18:13:14 42° W 18:17:03 10° SSW
ATLAS 2AS CENTAUR R/B 3.2 18:07:30 10° NNW 18:15:19 51° NE 18:22:34 10° SE
Meteor 1-28 Rocket 4.3 18:15:04 16° NE 18:17:08 25° E 18:20:18 10° SSE
ISS -1.3 18:16:46 10° W 18:19:22 21° NNW 18:21:48 11° NNE
Meteor 1-18 Rocket 4.2 18:13:50 10° S 18:19:24 75° E 18:25:06 10° NNE
SL-08 R/B 4.5 18:14:13 10° N 18:20:36 73° E 18:26:51 10° SSE
Cosmos 2251 Rocket 3.6 18:16:26 10° N 18:21:42 54° ENE 18:26:52 10° SSE
Cosmos 1812 2.8 18:26:13 10° S 18:30:04 76° W 18:33:56 10° N
SL-27 R/B 2.4 18:26:51 10° NNW 18:30:32 84° ENE 18:34:09 10° SSE
Cosmos 1346 Rocket 3.1 18:26:54 10° SSE 18:30:37 42° E 18:32:45 22° NE
Tiangong 1 2.0 18:30:55 10° SSW 18:33:38 31° SE 18:34:09 29° SE
MSX 3.9 18:28:06 10° SSE 18:33:51 82° WSW 18:39:38 10° NNW
CZ-4 R/B 3.7 18:31:24 10° SSW 18:35:02 28° W 18:38:40 10° NW
OE (NEXTSAT) 4.4 18:32:54 10° SW 18:36:27 67° SE 18:37:38 38° ENE
Nadezhda 3 Rocket 4.0 18:33:13 10° SSE 18:39:11 54° E 18:45:14 10° NNE
DMSP B5D1-3 4.4 18:35:20 10° NNE 18:40:29 70° ESE 18:45:35 10° S
COSMO-SKYMED 1 2.6 18:36:09 10° N 18:40:30 82° WNW 18:44:50 10° SSW
Cosmos 1544 Rocket 4.3 18:37:39 10° NNW 18:42:01 56° W 18:46:23 10° S
Meteor 2-21 4.5 18:36:56 10° N 18:42:59 55° E 18:48:58 10° SSE
CZ-2C R/B 4.1 18:40:28 10° SSW 18:44:57 36° W 18:49:34 10° NNW
GEOS 3 Rocket 3.6 18:40:31 10° SE 18:45:31 58° NE 18:50:33 10° NNW
Cosmos 1844 Rocket 4.2 18:40:45 10° SW 18:45:45 33° WNW 18:50:48 10° N
Cosmos 1238 Rocket 4.4 18:46:44 10° SW 18:49:17 25° W 18:51:49 10° NNW
Cosmos 1975 2.8 18:50:28 10° N 18:54:33 83° W 18:58:35 10° S
ATLAS 3B CENTAUR R/B 3.8 18:36:49 10° WSW 18:55:39 56° S 19:00:10 25° ESE
Cosmos 2297 3.7 18:51:37 10° S 18:57:09 59° ESE 18:59:27 34° NE
NOSS 2-1 (D) 4.2 18:58:08 10° S 19:00:46 33° SSE 19:00:46 33° SSE
NOSS 2-1 (C) 4.3 18:58:50 10° S 19:01:25 32° SSE 19:01:25 32° SSE
Meteor 2-14 Rocket 4.4 19:00:51 10° N 19:06:57 63° E 19:13:01 10° SSE
Meteor 1-19 Rocket 4.1 19:03:19 10° S 19:09:01 69° E 19:12:12 28° NNE
OAO 1 4.4 19:03:53 10° W 19:09:23 89° S 19:10:37 55° E
Cosmos 2278 Rocket 3.2 19:08:27 10° SW 19:13:48 44° WNW 19:18:28 14° N
Cosmos 1025 Rocket 4.5 19:13:25 10° S 19:15:22 25° SSE 19:15:22 25° SSE
OTV 4 2.9 19:19:45 10° W 19:21:18 23° WSW 19:21:18 23° WSW
Meteor 2-21 Rocket 4.4 19:16:35 10° N 19:22:48 85° W 19:28:57 10° S
Okean 1-7 Rocket 3.8 19:18:55 10° SSW 19:23:26 71° W 19:24:14 56° NNW
Meteor 1-13 Rocket 4.4 19:18:22 10° SSW 19:23:57 69° W 19:28:38 16° N
FALCON 9 R/B 3.0 19:02:33 10° WSW 19:24:18 83° S 19:26:28 50° E
Cosmos 921 Rocket 3.4 19:21:58 10° SSW 19:25:22 58° SSW 19:25:22 58° SSW
Timation 1 Rocket 4.2 19:22:16 10° SSW 19:28:13 89° ESE 19:29:25 59° NNE
Meteor 2-16 Rocket 4.3 19:22:23 10° N 19:28:30 87° E 19:34:34 10° S
Cosmos 1371 Rocket 4.5 19:24:22 10° S 19:28:19 48° SSE 19:28:19 48° SSE
BREEZE M DEB (TANK) 3.7 19:25:43 10° WSW 19:32:26 36° NW 19:32:37 36° NW
Cosmos 1535 Rocket 4.4 19:34:23 10° N 19:40:44 87° W 19:46:56 10° S
Cosmos 2082 Rocket 3.3 19:36:47 10° NNW 19:39:42 31° N 19:39:42 31° N
Timation 2 Rocket 4.0 19:37:13 10° NNW 19:44:06 84° ENE 19:44:53 72° SE
Cosmos 1833 Rocket 4.4 19:42:41 10° NNW 19:44:32 21° NNW 19:44:32 21° NNW
BREEZE M DEB (TANK) 4.5 19:47:10 10° NW 19:50:35 41° N 19:50:35 41° N
Meteor 2-4 Rocket 4.4 19:55:49 10° SSW 20:00:09 47° WSW 20:00:09 47° WSW
ATLAS 2AS CENTAUR R/B 4.4 19:59:09 10° NW 20:05:58 33° WSW 20:12:20 10° S
